Погода Октябрьский Городок

Погода Октябрьский Городок : погода сейчас, прогноз погоды и архив. Всё, что Вы хотите узнать о погоде Октябрьский Городок!

Поиск расширенной информации на нашем сайте:

Другие новости

Новости СМИ2

Главная страница сайта

Новости сайта

02.10.2013

Напоминаем, что на нашем новом сайте вы можете получить высокодетализированные прогнозы погоды по пунктам России, СНГ и мира (включающие важные для авиации метеовеличины, такие как направление и скорость ветра, видимость, явления погоды, количество и форма облачности, нижняя и верхняя граница облачности), а также ознакомиться с разнообразными материалами по авиационной метеорологии и подборкой полезных ссылок на эту тему.

Сайт Метеоцентр.Азия посвящён разработке технологий оптимизации авиаметеорологического обслуживания, включая проектирование и перспективное создание нескольких автоматизированных авиаметеорологических систем:
- система выпуска высокодетальных прогностических карт явлений погоды для нижнего воздушного пространства по России и ближнему зарубежью;
- система верификации прогнозов TAF (выпускаемых синоптиками официальных АМСГ РФ и ближнего зарубежья) и AUTOTAF (выпускаемых сайтом Метеоцентр.Азия) - выявление ошибок, онлайн-сопоставление с фактической погодой METAR, автоматическое внесение коррективов в прогнозы при резком отклонении фактической погоды от прогноза, подсчёт оправдываемости прогнозов по элементам и в целом;
- система обработки, анализа и отображения авиаметеорологической информации для применения провайдерами метеорологической информации.

Рекомендуем: Закон о принудительном лечении алкоголизма.

Погода Октябрьский Городок - сегодня

Время (UTC), дата Ветер
(°,м/с) 
Видим.   Явления Облачность Т
(°С)
Тd
(°С)
f(%) Тe
(°С)
Pmin
(гПа)
dP
(гПа)
Po
(мм)
O2
(г/м3)
Тmin Tmax R s Состояние
почвы
15 21.01.17 250 (З) 4000 м  слаб. снег  10/0 средняя 
[As op]
-4 -4.7 95 -7  1006.7  -1.6  736  301    -3.9     
18 21.01.17 300 (СЗ) 4000 м  снег  10/0 средняя 
[As op]
-4.2 -5 94 -8  1006.4  -0.2  736  302           
21 21.01.17 320 (СЗ) 7{12}  20000 м  позёмок{снег}  ясно 
-9.4 -11.8 83 -15  1010.1  -0.2  738  309           
00 22.01.17 250 (З) 20000 м  {снег}  ясно 
-13.3 -14.8 88 -17  1012.7  2.2  740  315           
03 22.01.17 280 (З) 7-10{10}  20000 м    10/10 300 м 
[Sc]
-10.7 -12 90 -17  1014.1  1.6  741  312  -15.1    19  равномерный
сухой снег
100% 
06 22.01.17 270 (З) 6-12{13}  20000 м  позёмок{снег}  3/3 300 м 
[Sc]
-10.7 -13.5 80 -16  1015.6  1.4  742  312  -10.7         
09 22.01.17 260 (З) 7-11{11}  20000 м    ясно 
-9.6 -12 83 -15  1016.6  1.2  743  311           
12 22.01.17 260 (З) 20000 м    ясно 
-9 -12 79 -14  1016.4  0.3  743  311           
15 22.01.17 260 (З) 6-10{10}  20000 м    6/0 средняя 
[Ac trans]
-11.5 -13.6 84 -17  1016.5  0.1  743  314    -8.8  0.4     
18 22.01.17 250 (З) 5-10{10}  20000 м    10/0 средняя 
[Ac As]
-8.5 -10.3 87 -13  1014.8  -1.3  741  309           
21 22.01.17 260 (З) 6{13}  20000 м    10/0 средняя 
[Ac As]
-7.8 -9.6 87 -13  1013.9  -0.8  741  308           
00 23.01.17 260 (З) 4{10}  20000 м    10/0 средняя 
[Ac As]
-6.9 -8.2 90 -10  1014.5  0.7  741  307           
03 23.01.17 280 (З) 20000 м  слаб. снег  10/0 средняя 
[Ac As]
-5.6 -7.1 89 -9  1016.3  1.9  743  306  -11.7    0.3  20  равномерный
сухой снег
100% 
06 23.01.17 270 (З) 20000 м  {снег}  9/0 средняя 
[Ac trans]
-6.3 -9.7 77 -10  1018.5  2.1  744  308           
09 23.01.17 250 (З) 20000 м    4/0 верхняя 
[Ci]
-5.3 -9.7 71 -8  1019.2  0.7  745  307           
12 23.01.17 230 (ЮЗ) 20000 м    10/0 средняя 
[As op]
-4.4 -8 76 -6  1018.6  -0.5  745  306           
15 23.01.17 240 (ЮЗ) 20000 м    10/0 средняя 
[As op]
-3.7 -4.5 94 -5  1017.8  -0.8  744  304    -3.7       
18 23.01.17 240 (ЮЗ) 4000 м  переохл. морось (гололёд) [диам. гололёда 0 мм]  10/10 300 м 
[St]
-1.4 -1.9 96 -4  1016.4  -1.1  743  301           
21 23.01.17 230 (ЮЗ) 4000 м  слаб. снег{морось} [диам. гололёда 1 мм]  10/10 300 м 
[St]
-2.1 -3 94 -5  1015.1  -1.3  742  302           
00 24.01.17 230 (ЮЗ) 20000 м  {снег, морось} [диам. гололёда 1 мм]  10/10 300 м 
[St]
-2 -3 93 -5  1013.4  -1.6  741  301           
03 24.01.17 240 (ЮЗ) 4000 м  переохл. морось (гололёд) [диам. гололёда 2 мм]  10/10 300 м 
[St]
-2.2 -2.8 96 -6  1011.4  -1.9  740  301  -3.7    0.2  20  равномерный
мокрый или
старый снег
100% 
06 24.01.17 250 (З) 6{10}  10 км  {морось} [диам. гололёда 2 мм]  10/10 300 м 
[St]
-2.8 -3.6 94 -7  1010.9  -0.6  739  301           
09 24.01.17 240 (ЮЗ) 5{10}  4000 м  переохл. морось (гололёд) [диам. гололёда 2 мм]  10/10 300 м 
[St]
-4 -5 93 -8  1010.9  0.1  739  303           
12 24.01.17 240 (ЮЗ) 4000 м  дымка{морось} [диам. гололёда 2 мм]  10/10 300 м 
[St]
-4.2 -5.4 91 -8  1010.5  0.1  739  303           
15 24.01.17 240 (ЮЗ) 5{10}  20000 м  [диам. гололёда 3 мм]  10/10 300 м 
[St]
-4.8 -5.8 93 -9  1010.8  0.3  739  304    -2.2  0.3     
Время (UTC), дата Ветер
(°,м/с) 
Видим.   Явления Облачность Т
(°С)
Тd
(°С)
f(%) Тe
(°С)
Pmin
(гПа)
dP
(гПа)
Po
(мм)
O2
(г/м3)
Тmin Tmax R s Состояние
почвы

Для получения пояснительной информации подведите курсор к названию столбца.

ПОГОДА Октябрьский Городок - архив

Всё, что Вы хотите узнать о погоде Октябрьский Городок - удобно и подробно!

Выберите нужную дату (начиная с 1 января 2015* года) и нажмите кнопку "Найти".
Будут отображены архивные сводки погоды по пункту Октябрьский Городок, начиная с указанной даты.


Отображать данные в формате CSV (для использования в таблицах Excel)


Внимание! Наш архив погоды предназначен исключительно для личного некоммерческого использования в познавательных целях. Если Вам необходимы официальные справки о состоянии погоды (для производственных, юридических, коммерческих и т.п. целей), обращайтесь в органы Росгидромета.

*Примечание: данная дата относится к архиву по метеостанциям СССР (Россия, СНГ, Балтия).
Архив по метеостанциям Зарубежной Европы и Азии (кроме Китая) хранится 10 дней, по другим регионам земного шара (Китай, Африка, Америка, Австралия, Океания) - 1 день.

Октябрьский Городок - район местоположения метеостанции


Название, широта, долгота, высота метеостанции:
Октябрьский Городок 51.6°ш. 45.4°д. 201 м над ур. моря [Российская Федерация]

Дополнительная информация

В oтличие oт бoльшинства пoгoдных сайтoв мы публикуем пoдрoбную метеoинфoрмацию в детальнoм прoфессиoнальнoм фoрмате.

Характеристики температуры и влажнoсти вoздуха измеряются на высoте 2 м в тени вдали oт зданий и деревьев.
Скoрoсть ветра измеряется на высoте 10 м (на урoвне рoста челoвека скoрoсть ветра ниже в 1.5-2 раза). Если метеoстанция нахoдится в гoрoде или в лесу, тo скoрoсть ветра занижена на 2-4 м/с пo сравнению с oткрытым местoм. Скoрoсть ветра над акватoриями крупных рек и oзёр, а также на вершинах хoлмoв на 2-5 м/с выше, чем в oбычных услoвиях.
Атмoсфернoе давление в разных тoчках местнoсти мoжет значительнo oтличаться oт давления на метеoстанции, в зависимoсти oт услoвий рельефа (при пoдъёме на 10 м давление пoнижается примернo на 1 мм рт.ст.).